Wind_Speed
20 20 21 21 21 21 21 21 21 21 21 22 23 23 23 24 24 24 24 24 24 24 24 24 23 23 23 23 23 22 21 21 21 21 21 21 21 20
21 21 21 21 21 21 22 22 22 22 22 23 23 23 24 24 25 25 24 25 25 25 25 26 25 25 26 25 25 24 23 23 23 23 23 23 23 22
21 21 21 20 21 22 22 23 24 24 24 25 25 25 25 26 25 26 26 26 27 27 26 26 26 26 27 27 26 26 25 24 24 24 24 24 24 24
21 21 21 21 22 22 23 23 24 25 25 25 26 26 27 27 28 27 27 27 28 28 28 27 27 27 27 27 27 27 27 26 26 26 25 25 25 25
21 21 22 22 23 23 24 24 25 25 25 26 26 26 27 28 29 29 28 28 28 28 29 29 28 28 28 28 28 27 27 27 26 27 27 26 26 26
22 23 23 23 24 24 25 25 25 25 26 26 26 27 28 28 29 29 30 30 30 30 30 30 30 29 29 29 29 28 28 27 27 27 28 28 28 27
23 24 24 24 25 25 25 26 27 27 27 27 27 27 27 28 28 29 30 30 30 31 31 31 30 30 30 30 30 30 30 29 28 28 29 29 29 29
24 24 25 25 26 26 26 27 27 28 28 28 28 28 28 28 28 28 29 29 29 30 30 31 31 31 32 31 31 31 31 31 30 30 29 29 29 30
25 25 25 26 26 27 27 27 28 28 28 28 28 28 28 28 29 29 29 29 29 29 30 31 31 32 32 32 31 31 32 32 31 31 30 30 30 30
25 25 25 26 27 27 27 27 28 27 27 27 28 28 28 28 29 29 29 30 30 30 30 31 31 31 31 32 32 32 32 32 32 31 30 30 31 31
26 26 27 27 27 27 28 28 28 28 28 27 28 28 28 28 29 29 29 29 30 30 30 31 31 31 32 32 32 31 31 30 30 31 31 31 30 30
26 27 27 27 27 27 28 27 27 27 27 27 27 28 28 29 29 29 29 30 30 30 30 30 31 30 30 31 30 29 29 28 29 29 29 29 29 29
27 27 27 28 28 27 27 27 27 27 28 29 29 29 28 28 29 29 29 29 29 29 29 29 30 30 30 29 29 29 28 28 28 28 28 28 28 27
27 27 28 28 28 28 28 28 28 29 29 28 28 28 29 29 28 28 28 28 28 28 28 29 29 29 29 29 29 29 29 29 28 28 28 28 28 28
28 28 28 28 28 28 28 28 28 28 27 27 26 27 28 28 28 27 27 27 28 28 28 29 29 29 30 30 29 29 29 29 29 28 28 28 28 28
28 28 28 28 29 28 28 28 28 27 26 25 25 25 25 26 26 26 26 27 27 27 28 29 28 28 29 29 29 30 30 30 30 30 29 28 28 27
27 27 27 27 27 27 27 27 25 24 24 25 24 25 25 25 25 25 26 26 26 26 26 26 26 26 27 27 28 29 29 29 29 29 29 28 28 28
27 27 27 27 27 27 27 26 25 24 24 24 24 24 24 24 24 25 25 25 24 25 25 25 25 24 25 25 25 26 27 28 28 28 28 28 28 28
28 28 28 28 27 26 26 25 24 25 25 24 24 23 23 23 23 23 23 23 23 23 23 24 23 24 24 24 24 24 25 26 27 27 27 26 27 27
28 28 27 27 26 25 25 25 25 25 24 24 23 23 24 24 23 22 22 22 22 22 22 23 23 24 24 23 23 24 24 25 25 25 25 25 25 26
27 27 26 26 25 25 25 25 24 24 24 24 24 24 24 24 23 23 22 22 22 22 22 22 23 23 24 24 23 24 24 24 24 24 25 25 25 26
27 26 25 25 25 25 25 25 25 24 24 24 24 24 24 24 23 23 23 23 23 23 22 22 22 22 23 23 23 23 23 23 23 23 24 25 25 25
27 27 26 25 25 25 25 25 25 24 24 24 23 23 23 23 23 23 23 23 23 23 23 22 22 22 23 23 23 22 22 23 23 23 23 24 24 23
Wind_Direction
285 283 281 280 278 276 275 274 274 273 272 270 269 268 266 264 260 260 259 257 257 259 260 260 261 260 261 261 261 262 262 265 266 267 269 268 267 266
283 283 282 281 278 277 277 275 274 274 273 271 269 269 268 266 262 261 260 260 259 259 261 261 262 261 260 259 260 261 264 265 265 266 267 267 266 265
285 284 283 282 283 282 281 279 277 275 274 271 269 268 268 267 264 263 262 262 261 260 262 262 262 261 260 259 260 262 263 264 265 266 267 267 266 265
288 285 284 283 282 281 280 280 279 277 276 273 270 269 268 266 265 265 263 262 262 262 261 263 262 261 261 261 262 261 263 265 267 267 265 266 266 264
290 286 284 283 282 280 278 279 278 278 276 274 271 270 269 267 267 266 265 263 262 262 262 262 263 262 261 261 261 262 264 265 267 267 265 265 265 263
292 290 287 284 283 282 278 278 277 277 276 275 272 269 269 269 268 267 267 266 264 263 264 264 264 263 262 262 261 262 264 265 266 267 265 265 265 265
293 291 289 287 285 283 280 278 277 276 276 275 273 272 271 270 270 269 268 267 266 265 264 263 263 264 263 262 260 261 264 266 267 267 266 265 265 265
293 292 289 288 288 285 283 281 280 279 278 276 273 273 271 270 270 269 268 267 267 266 265 264 263 262 262 262 261 263 265 266 267 267 266 264 264 263
294 292 291 290 289 287 285 283 281 281 279 278 276 275 273 270 270 269 268 267 266 266 266 266 263 262 263 264 265 265 266 266 267 266 264 262 261 263
295 293 291 291 290 288 286 285 284 282 281 280 277 275 274 270 269 268 269 269 268 266 266 267 267 266 266 265 266 267 267 266 265 265 263 261 261 261
295 295 293 291 289 288 287 286 285 283 282 280 277 273 272 271 270 270 271 271 269 268 268 268 268 268 267 267 266 266 266 266 265 263 262 261 261 261
297 297 295 295 292 289 287 286 286 283 281 280 278 276 274 274 274 273 272 272 270 268 268 267 267 266 265 264 264 263 263 263 264 264 263 262 261 260
296 295 295 294 293 291 288 287 286 284 282 282 281 278 276 275 275 273 273 273 271 269 268 266 266 266 265 262 262 261 261 263 264 264 264 263 261 260
295 293 294 294 293 292 290 288 287 286 284 282 280 278 277 277 274 272 273 272 271 271 269 267 266 266 263 261 262 261 260 261 262 262 262 261 260 260
295 294 293 293 293 292 291 291 289 287 285 283 282 279 276 275 274 271 271 271 271 271 270 269 267 265 263 262 261 260 259 259 260 260 261 261 261 260
297 295 294 293 293 292 291 291 290 288 287 285 283 282 280 276 274 273 273 272 272 270 269 269 268 265 264 262 261 259 259 259 259 260 262 262 262 261
301 299 297 295 294 293 292 292 290 288 287 287 285 282 279 277 274 274 274 274 274 273 272 270 268 265 263 261 259 258 257 258 259 259 261 261 261 262
302 302 301 299 297 294 292 291 289 290 290 289 286 284 279 277 277 275 274 274 273 273 273 272 270 268 265 263 262 261 260 258 258 258 259 260 261 261
302 303 304 302 298 295 292 290 288 287 287 286 284 282 279 277 277 276 274 273 273 272 271 270 268 267 266 264 264 264 263 262 261 259 259 259 261 261
303 303 304 303 300 295 292 291 288 287 285 285 284 282 280 278 277 275 274 273 273 273 272 270 267 266 265 264 263 263 264 262 260 258 257 258 259 260
303 304 303 302 300 297 294 291 288 285 283 283 283 282 281 279 277 275 272 271 272 272 271 269 267 267 264 264 263 263 262 262 261 259 258 258 259 260
303 304 304 302 299 297 295 293 287 283 280 280 282 282 280 279 277 275 273 272 271 271 270 269 267 266 263 261 262 262 262 261 261 261 260 260 260 261
302 303 302 301 298 296 294 293 289 283 281 280 280 281 280 279 278 275 273 272 271 269 269 269 267 264 262 260 260 261 262 261 260 260 260 260 260 261
Height
5837 5836 5835 5834 5833 5832 5831 5830 5830 5829 5829 5828 5827 5827 5827 5827 5827 5828 5828 5829 5830 5830 5831 5832 5832 5832 5833 5833 5834 5835 5835 5835 5835 5835 5835 5835 5835 5836
5832 5830 5829 5828 5827 5826 5826 5825 5824 5824 5823 5822 5821 5821 5821 5821 5821 5821 5822 5822 5823 5824 5824 5825 5825 5826 5826 5827 5828 5828 5829 5829 5829 5829 5829 5829 5829 5830
5826 5825 5824 5822 5821 5820 5819 5819 5818 5817 5817 5816 5815 5815 5814 5814 5814 5814 5815 5815 5816 5816 5817 5817 5818 5819 5819 5820 5821 5821 5822 5822 5822 5823 5823 5823 5823 5823
5820 5819 5818 5817 5816 5814 5813 5812 5812 5811 5810 5809 5808 5808 5807 5807 5807 5807 5808 5808 5809 5809 5810 5810 5811 5811 5812 5813 5813 5814 5815 5815 5815 5815 5816 5816 5816 5816
5815 5813 5812 5811 5809 5808 5807 5806 5805 5804 5803 5802 5801 5800 5800 5799 5799 5800 5800 5800 5801 5801 5802 5802 5803 5803 5804 5805 5806 5807 5807 5808 5808 5808 5808 5808 5808 5809
5809 5807 5805 5804 5803 5801 5800 5799 5798 5796 5795 5794 5793 5793 5792 5792 5791 5791 5792 5792 5792 5793 5793 5794 5795 5795 5796 5797 5798 5799 5799 5800 5800 5800 5800 5800 5801 5801
5803 5801 5799 5797 5795 5794 5793 5792 5790 5789 5788 5786 5786 5785 5784 5783 5783 5783 5783 5783 5783 5784 5785 5785 5786 5787 5787 5788 5789 5790 5791 5791 5791 5791 5792 5792 5792 5793
5796 5794 5792 5791 5789 5787 5785 5784 5782 5781 5780 5778 5777 5776 5776 5775 5775 5774 5774 5775 5775 5775 5775 5776 5777 5777 5778 5778 5779 5780 5781 5782 5782 5782 5783 5783 5784 5784
5790 5787 5785 5783 5781 5780 5778 5776 5775 5773 5772 5770 5769 5767 5767 5766 5766 5766 5765 5765 5766 5766 5766 5766 5767 5767 5768 5768 5770 5770 5771 5772 5773 5773 5773 5774 5775 5776
5783 5780 5778 5776 5774 5772 5770 5768 5766 5765 5763 5761 5761 5759 5758 5758 5757 5757 5757 5756 5756 5756 5757 5757 5757 5757 5758 5758 5759 5760 5761 5762 5762 5763 5764 5765 5766 5767
5775 5773 5771 5768 5766 5764 5762 5760 5758 5756 5754 5752 5751 5751 5750 5749 5748 5748 5747 5747 5747 5747 5747 5747 5747 5747 5747 5748 5748 5749 5751 5752 5753 5753 5754 5755 5756 5757
5768 5765 5763 5761 5758 5755 5753 5751 5749 5747 5745 5744 5743 5742 5741 5740 5739 5739 5738 5738 5737 5737 5737 5737 5737 5737 5738 5738 5739 5740 5741 5742 5743 5744 5745 5746 5747 5748
5760 5758 5755 5753 5750 5747 5745 5743 5740 5738 5736 5735 5734 5732 5731 5730 5730 5729 5728 5728 5728 5728 5728 5728 5727 5728 5728 5729 5730 5731 5732 5733 5734 5735 5736 5737 5738 5740
5752 5750 5747 5744 5742 5739 5736 5734 5731 5729 5727 5725 5724 5723 5722 5721 5720 5720 5719 5718 5718 5718 5718 5718 5718 5719 5719 5720 5721 5722 5723 5725 5726 5727 5727 5728 5730 5731
5743 5740 5738 5735 5733 5730 5728 5725 5722 5720 5718 5716 5715 5714 5713 5712 5711 5711 5710 5710 5709 5709 5709 5709 5709 5709 5710 5711 5713 5714 5715 5716 5717 5718 5719 5720 5721 5722
5734 5731 5729 5726 5723 5721 5718 5716 5713 5711 5709 5707 5706 5704 5703 5703 5702 5702 5701 5701 5701 5700 5700 5700 5700 5700 5701 5702 5703 5705 5706 5707 5708 5709 5710 5711 5712 5713
5726 5723 5720 5717 5714 5712 5709 5707 5704 5702 5701 5699 5697 5696 5695 5694 5693 5693 5693 5692 5692 5692 5692 5691 5691 5691 5692 5693 5694 5695 5697 5698 5699 5700 5701 5703 5704 5705
5718 5715 5712 5708 5706 5703 5701 5698 5696 5694 5692 5691 5689 5688 5687 5686 5685 5685 5685 5684 5684 5684 5684 5683 5683 5683 5684 5685 5686 5686 5687 5689 5690 5691 5693 5694 5695 5696
5710 5707 5703 5700 5697 5694 5692 5690 5688 5686 5684 5683 5681 5680 5679 5678 5677 5677 5677 5676 5676 5676 5676 5676 5676 5676 5676 5677 5678 5679 5679 5680 5681 5682 5684 5685 5686 5687
5702 5698 5695 5691 5688 5686 5683 5681 5679 5678 5676 5675 5673 5672 5670 5670 5669 5669 5669 5669 5669 5668 5668 5668 5668 5669 5669 5670 5671 5671 5671 5672 5673 5674 5675 5676 5678 5678
5693 5690 5686 5683 5680 5677 5675 5672 5671 5669 5668 5666 5665 5663 5662 5661 5661 5660 5660 5661 5661 5661 5661 5661 5661 5661 5661 5662 5663 5663 5664 5664 5665 5666 5667 5669 5670 5670
5685 5682 5678 5675 5672 5669 5666 5664 5662 5660 5659 5658 5656 5655 5654 5653 5653 5652 5652 5653 5653 5653 5653 5653 5653 5653 5654 5654 5655 5656 5656 5657 5657 5658 5659 5661 5661 5662
5677 5674 5670 5667 5664 5661 5658 5655 5653 5651 5650 5649 5647 5646 5646 5645 5644 5644 5644 5644 5645 5645 5645 5645 5646 5646 5646 5647 5648 5648 5649 5649 5650 5651 5652 5653 5654 5655